Terminal Aerodrome Forecast
Issued by NWS Houston/Galveston, TX

Home | Current Version | Previous Version | Text Only | Print | Product List | Glossary On
Versions: 1 2 3 4 5 6 7 8 9 10 11 12 13 14 15 16 17 18 19 20 21 22 23 24 25 26 27 28 29 30 31
000
FTUS44 KHGX 270520
TAFGLS
TAF
KGLS 270520Z 2706/2806 23003KT P6SM SKC
     FM270900 03012KT P6SM SKC
     FM271700 06011KT P6SM SKC
     FM280300 09009KT P6SM SKC=

USA.gov is the U.S. government's official web portal to all federal, state and local government web resources and services.